Location: Haulchin
(50.3172°N, 3.4360°E)
Time: 20:24:13
(UTC+00:00)

Cosmos 540 Rocket - Pass Details

Date: 23 May 2024
Orbit: 737 x 751 km, 74.1° (Epoch: 16 June)

Event Time Altitude Azimuth Distance (km) Brightness Sun altitude
Rises 01:07:25 0° 331° (NNW) 3,213 7.3 -16.6°
Reaches altitude 10° 01:09:53 10° 324° (NW) 2,284 6.4 -16.5°
Maximum altitude 01:14:43 41° 256° (WSW) 1,084 4.0 -16.2°
Enters shadow 01:16:56 27° 206° (SSW) 1,423 4.3 -16.1°
